Wind_Speed
31 30 30 30 29 27 25 23 25 26 27 27 25 24 22 19 16 19 16 14 16 19 21 16 16 15 14 8 8 7 2 5 6 9 8 4 5 6 7 9 9 7 7
31 30 29 27 26 27 28 26 24 26 25 26 27 26 23 20 19 19 16 14 17 19 20 18 15 16 10 5 4 5 5 2 4 13 10 7 9 9 9 10 10 10 9
33 32 31 30 26 22 21 21 22 25 25 25 26 25 23 21 21 20 15 17 18 20 19 17 13 14 8 5 3 3 5 2 2 8 12 9 11 9 9 9 10 8 9
29 30 30 31 29 26 23 20 19 19 23 26 26 26 24 23 23 20 16 18 19 19 19 15 13 12 7 3 4 4 5 4 9 8 11 11 10 9 7 6 9 8 8
3 9 15 22 27 29 27 26 23 21 21 21 23 24 25 25 22 19 16 18 19 20 19 16 14 12 7 3 3 4 5 8 11 11 11 10 10 10 7 6 5 6 7
12 6 6 12 16 23 27 27 29 29 25 24 23 22 24 25 23 20 16 18 19 20 18 15 14 11 7 4 6 6 4 4 10 11 10 8 8 10 9 7 6 5 4
13 13 12 11 9 11 15 21 26 28 29 29 27 25 27 27 26 22 17 18 20 19 17 15 13 9 6 6 7 9 11 6 5 6 6 7 7 8 9 7 7 6 4
16 17 16 18 19 17 17 18 18 21 25 28 29 30 30 29 29 26 20 21 21 19 16 14 12 8 6 6 8 10 11 9 7 8 7 4 6 5 5 5 6 5 4
21 19 19 20 22 22 21 21 20 22 23 25 28 29 31 30 30 28 23 22 22 18 16 13 11 7 7 8 9 10 11 10 9 7 6 9 8 8 7 7 7 5 6
29 28 25 23 22 24 25 25 24 22 22 21 23 28 26 29 27 27 27 25 23 18 16 12 12 7 9 10 10 11 9 9 10 10 11 13 12 11 8 4 3 6 8
24 27 30 29 26 24 25 26 24 22 18 21 24 28 31 32 28 16 12 20 16 14 15 13 11 8 10 12 12 13 8 9 9 10 10 14 13 12 10 10 7 6 5
26 26 25 25 27 25 25 26 22 15 15 17 16 17 16 21 27 37 34 9 12 21 21 17 13 9 12 12 12 12 13 11 10 10 12 14 14 12 11 10 10 8 5
22 25 24 23 24 26 25 24 22 14 12 14 15 12 13 15 21 29 37 39 38 25 25 22 18 13 14 17 15 13 15 14 13 13 14 13 11 9 11 10 12 11 7
24 24 25 26 27 27 27 25 23 16 16 19 19 18 19 20 21 18 24 32 38 28 28 27 22 17 16 19 18 19 17 16 14 12 10 11 13 14 14 12 10 9 9
27 26 26 25 26 27 29 28 24 19 19 21 23 22 25 30 33 33 32 38 34 29 29 29 26 24 22 23 21 21 20 19 20 19 15 13 11 10 14 14 13 12 11
29 27 25 24 24 25 30 31 27 23 21 23 24 29 33 35 31 25 23 37 34 29 30 31 29 25 22 22 22 22 22 22 23 22 19 17 16 14 13 12 12 13 11
28 27 25 26 27 26 29 29 30 25 21 22 24 26 30 35 36 32 28 39 31 28 30 30 26 24 22 22 21 21 23 24 23 20 18 15 17 18 18 16 13 12 11
26 26 25 26 25 29 29 30 29 26 22 21 23 23 22 25 29 26 25 28 29 27 26 26 26 24 24 22 20 21 24 25 21 18 18 17 17 17 19 17 15 13 11
25 26 25 26 25 25 27 29 30 28 25 22 22 18 14 17 17 22 25 23 24 24 24 24 23 24 24 21 19 18 23 23 21 18 19 18 18 19 20 19 18 17 17
30 31 28 27 27 26 28 31 32 29 23 23 21 19 14 16 23 25 25 24 24 23 23 21 20 22 21 22 22 22 23 23 24 24 22 20 18 20 22 23 23 23 23
31 29 26 28 27 29 30 34 33 26 20 23 21 20 17 22 25 26 29 27 21 20 20 20 19 18 19 20 20 23 23 24 24 24 25 25 23 22 22 21 21 21 20
28 29 27 25 25 27 28 30 32 23 21 22 21 19 18 19 23 25 23 23 21 21 21 20 18 15 13 9 18 20 20 22 22 23 23 21 21 24 26 25 23 22 24
27 27 27 26 26 27 29 31 29 20 18 21 17 22 22 22 19 18 19 19 21 24 23 17 19 14 10 9 11 12 15 17 19 22 22 22 22 22 22 24 20 20 21
20 23 25 26 26 27 23 24 24 18 18 20 17 19 22 22 21 20 19 20 21 19 21 22 19 13 9 10 12 12 12 13 13 14 14 19 21 22 23 22 20 19 20
16 20 23 21 19 19 21 21 20 20 18 17 17 16 18 16 14 14 17 18 19 23 24 21 16 13 11 10 13 13 12 13 14 15 14 13 14 12 11 11 12 12 12
4 6 11 12 15 14 15 15 18 16 16 16 14 15 14 14 18 21 22 21 21 19 10 11 13 9 6 8 11 11 10 11 9 9 9 9 9 8 6 5 5 5 6
Wind_Direction
257 256 257 257 255 255 256 256 251 252 251 251 255 263 268 274 285 301 298 293 311 314 328 325 322 325 320 307 316 350 259 266 208 180 164 129 101 106 87 91 96 124 147
262 265 263 266 267 263 259 261 260 253 254 253 252 255 261 270 285 294 291 298 300 313 322 325 327 330 319 301 323 326 280 260 290 162 154 139 134 119 108 104 99 105 110
262 265 268 268 267 268 266 267 265 256 253 255 253 252 257 266 275 282 287 294 295 307 316 318 321 327 314 298 313 302 245 207 139 158 148 144 136 127 109 114 109 116 120
264 265 265 266 271 272 272 272 272 265 255 253 254 252 254 262 270 270 282 288 292 303 307 311 315 317 302 299 303 279 210 195 157 160 150 142 145 143 142 122 125 127 127
312 283 277 271 271 273 271 272 272 270 270 260 254 254 252 254 255 260 275 283 287 297 299 306 313 314 306 220 236 237 224 184 170 171 171 157 162 157 148 147 135 145 145
53 38 307 281 278 275 272 272 273 271 268 269 263 254 255 248 247 255 269 274 284 290 290 299 310 303 294 225 204 180 176 198 183 174 181 170 168 167 159 157 130 116 110
21 15 15 2 340 317 296 280 265 264 271 270 268 265 255 252 250 253 264 268 275 278 283 294 306 286 267 241 191 175 155 148 119 165 171 175 176 171 154 154 139 111 94
14 9 6 358 355 340 320 310 301 287 273 269 267 266 263 259 256 253 255 257 263 264 270 286 301 277 249 215 194 183 172 167 160 145 149 172 162 175 158 136 146 128 123
345 344 340 335 332 333 328 320 310 299 290 280 272 265 264 265 262 258 255 259 262 258 265 278 290 257 221 204 198 192 190 178 183 188 193 172 183 183 181 181 183 178 160
330 330 328 326 320 313 316 315 313 307 292 280 281 267 263 262 258 250 253 252 250 249 254 261 285 268 206 207 198 197 204 196 196 211 217 196 181 189 188 193 216 207 186
322 320 316 316 316 314 312 312 310 308 302 282 269 267 263 253 242 242 231 236 241 250 252 262 269 270 220 216 199 193 205 208 194 213 218 208 192 188 195 189 183 194 191
307 305 312 315 312 312 309 312 314 312 305 288 275 267 269 259 242 231 236 199 226 259 248 256 252 253 232 212 207 194 200 206 198 214 207 209 194 190 196 203 200 187 209
294 297 298 301 305 305 309 311 313 310 279 271 269 258 230 213 220 230 228 240 206 236 240 239 235 230 221 210 204 201 207 211 202 212 211 210 200 190 197 199 191 196 209
283 285 290 289 289 293 297 305 308 288 276 268 262 239 224 207 210 223 249 224 200 206 229 227 225 227 219 210 204 204 210 208 198 189 198 194 203 205 202 203 203 210 221
278 276 277 280 284 282 286 293 295 288 267 264 264 252 252 256 264 253 250 229 214 216 219 216 219 216 210 205 201 203 208 207 194 182 191 194 186 195 204 211 225 231 231
278 277 279 279 284 279 282 289 288 292 267 260 264 259 254 256 257 242 267 234 225 226 219 222 222 220 216 209 203 206 209 210 198 192 206 215 214 213 214 213 220 231 240
272 275 275 275 277 284 283 283 287 293 278 266 265 273 260 250 247 254 263 232 230 227 225 226 225 223 214 209 205 208 211 206 199 204 217 227 223 218 219 228 217 211 223
272 270 275 275 280 279 277 279 279 287 286 272 272 276 265 249 241 239 225 212 214 217 222 223 223 218 209 203 207 204 202 206 213 220 226 224 212 208 206 207 219 222 223
266 267 272 274 276 273 275 274 274 281 282 273 268 274 274 223 213 196 205 214 212 212 211 213 214 210 207 201 205 203 212 216 222 228 234 233 223 216 214 213 221 231 234
260 263 270 268 272 268 269 272 274 277 271 269 263 260 233 209 208 211 215 214 212 220 216 214 212 210 210 211 213 210 219 221 225 225 229 229 226 222 225 227 230 235 236
265 265 270 265 265 267 267 269 275 277 258 258 262 261 252 236 230 220 215 205 210 214 220 219 211 210 214 216 221 219 220 225 227 228 232 231 230 234 236 235 233 239 239
260 261 265 263 268 268 266 267 271 273 250 252 257 256 245 222 215 201 196 203 212 216 213 206 201 203 222 235 224 218 218 222 224 230 232 234 234 236 244 249 255 255 255
262 256 256 259 264 266 267 263 271 264 243 250 252 239 215 197 201 201 201 203 209 212 202 195 195 201 211 231 236 236 223 221 225 231 235 235 233 238 243 246 250 254 257
250 253 256 259 263 267 260 266 262 256 241 241 249 230 222 223 216 210 208 207 206 199 202 189 188 197 212 236 237 231 232 234 238 244 232 234 241 244 246 242 239 248 252
259 255 264 265 258 251 259 260 251 248 228 237 228 213 212 213 214 195 179 173 165 166 167 167 173 189 198 220 238 244 244 247 247 250 247 244 244 238 233 232 240 249 257
254 269 268 271 259 255 251 247 243 234 227 208 196 198 190 182 175 172 168 168 166 162 171 208 208 205 225 250 257 266 254 242 235 231 226 223 227 222 223 221 223 238 256
Height
1519 1521 1524 1525 1526 1528 1529 1530 1531 1533 1534 1535 1535 1535 1535 1536 1535 1534 1534 1533 1531 1529 1527 1523 1520 1516 1514 1512 1511 1510 1509 1508 1508 1510 1511 1511 1511 1511 1511 1510 1509 1510 1512
1515 1517 1519 1521 1523 1524 1525 1526 1527 1527 1528 1529 1530 1531 1532 1533 1533 1533 1530 1529 1529 1526 1525 1522 1521 1518 1514 1512 1511 1510 1510 1509 1510 1509 1512 1512 1512 1513 1513 1512 1512 1513 1514
1510 1513 1515 1517 1518 1519 1520 1521 1521 1522 1523 1524 1524 1526 1528 1530 1530 1529 1528 1528 1525 1524 1521 1518 1516 1514 1513 1512 1511 1509 1508 1509 1511 1511 1512 1514 1514 1515 1516 1515 1514 1515 1517
1503 1507 1510 1513 1514 1515 1516 1516 1517 1517 1517 1518 1520 1522 1523 1524 1525 1526 1526 1525 1522 1520 1519 1516 1513 1511 1509 1511 1511 1510 1509 1509 1511 1514 1514 1515 1516 1516 1517 1518 1517 1518 1518
1499 1504 1506 1508 1509 1510 1511 1512 1513 1513 1513 1513 1514 1516 1517 1518 1520 1522 1521 1521 1520 1518 1517 1515 1513 1511 1508 1508 1507 1509 1510 1507 1509 1513 1515 1516 1517 1518 1519 1520 1519 1520 1520
1500 1501 1503 1502 1503 1503 1504 1505 1506 1507 1508 1509 1510 1511 1513 1512 1513 1515 1516 1516 1516 1515 1514 1512 1510 1509 1509 1509 1508 1507 1511 1511 1509 1511 1515 1517 1519 1519 1520 1521 1521 1522 1522
1503 1503 1501 1500 1500 1500 1500 1498 1498 1499 1502 1505 1506 1507 1506 1507 1509 1511 1513 1512 1513 1513 1512 1510 1507 1507 1507 1507 1508 1509 1507 1513 1511 1511 1515 1517 1518 1520 1521 1523 1523 1523 1522
1503 1502 1499 1499 1499 1497 1495 1493 1493 1492 1494 1496 1499 1499 1499 1501 1503 1504 1506 1506 1507 1507 1506 1506 1507 1506 1506 1505 1506 1508 1508 1510 1513 1512 1514 1517 1519 1520 1522 1525 1525 1525 1525
1505 1502 1499 1496 1495 1494 1492 1490 1488 1487 1488 1488 1488 1489 1492 1494 1497 1499 1503 1504 1506 1506 1507 1504 1502 1502 1503 1504 1504 1507 1509 1508 1512 1514 1515 1515 1518 1520 1522 1523 1525 1526 1526
1502 1498 1496 1494 1492 1491 1489 1486 1484 1482 1481 1480 1480 1481 1480 1486 1491 1492 1496 1496 1500 1503 1502 1500 1500 1503 1501 1502 1501 1505 1509 1508 1510 1514 1514 1514 1515 1518 1521 1523 1525 1527 1528
1499 1495 1493 1490 1488 1487 1484 1482 1480 1477 1475 1472 1472 1472 1472 1472 1471 1483 1489 1494 1495 1499 1499 1500 1497 1495 1502 1500 1498 1501 1507 1508 1506 1511 1513 1515 1514 1516 1519 1522 1524 1527 1528
1493 1491 1488 1486 1483 1482 1480 1477 1475 1473 1470 1468 1466 1465 1464 1464 1461 1463 1472 1466 1476 1486 1490 1493 1494 1491 1498 1499 1497 1497 1503 1506 1504 1510 1512 1514 1513 1516 1518 1521 1523 1525 1527
1487 1485 1482 1480 1478 1476 1474 1472 1470 1469 1467 1465 1463 1461 1460 1459 1459 1461 1463 1461 1466 1473 1477 1481 1486 1485 1490 1497 1495 1495 1499 1502 1502 1505 1508 1514 1515 1516 1518 1520 1522 1524 1525
1480 1478 1476 1473 1471 1470 1468 1467 1465 1464 1464 1461 1459 1459 1459 1459 1460 1460 1459 1456 1455 1458 1470 1475 1478 1483 1486 1489 1489 1491 1495 1499 1500 1503 1509 1510 1513 1515 1516 1519 1521 1523 1525
1471 1469 1467 1465 1463 1461 1459 1459 1458 1458 1458 1456 1454 1455 1454 1452 1453 1455 1457 1456 1458 1460 1465 1471 1472 1477 1480 1483 1485 1487 1492 1497 1499 1500 1507 1509 1509 1512 1515 1517 1520 1523 1523
1460 1459 1458 1456 1454 1453 1450 1449 1450 1450 1449 1448 1447 1446 1446 1444 1446 1449 1452 1451 1457 1460 1463 1465 1468 1472 1476 1478 1480 1485 1489 1494 1496 1497 1504 1508 1508 1509 1512 1514 1518 1521 1524
1450 1449 1448 1447 1446 1444 1442 1441 1440 1441 1440 1439 1438 1436 1434 1435 1437 1441 1444 1447 1453 1456 1458 1461 1465 1470 1472 1476 1478 1480 1486 1491 1494 1496 1500 1504 1505 1506 1510 1512 1513 1516 1520
1440 1440 1439 1438 1437 1435 1434 1432 1432 1431 1431 1430 1430 1429 1426 1426 1429 1432 1436 1440 1445 1451 1456 1458 1462 1466 1468 1471 1474 1478 1485 1490 1489 1491 1497 1501 1503 1504 1506 1507 1511 1513 1516
1431 1430 1430 1429 1428 1427 1425 1424 1423 1423 1423 1423 1422 1422 1420 1420 1423 1426 1432 1436 1440 1445 1450 1455 1460 1462 1466 1468 1473 1476 1482 1486 1488 1489 1492 1496 1499 1500 1503 1504 1506 1509 1512
1420 1420 1421 1420 1419 1418 1418 1415 1415 1415 1415 1415 1417 1417 1419 1420 1422 1424 1429 1434 1438 1442 1447 1450 1454 1459 1463 1468 1470 1472 1478 1480 1484 1486 1489 1492 1493 1496 1499 1500 1501 1504 1507
1409 1410 1411 1411 1410 1410 1409 1408 1406 1407 1408 1409 1409 1411 1412 1415 1418 1420 1424 1429 1435 1439 1444 1447 1452 1457 1461 1461 1465 1468 1471 1475 1479 1482 1486 1487 1488 1491 1495 1497 1497 1499 1503
1399 1400 1401 1401 1402 1402 1401 1400 1399 1400 1402 1403 1404 1405 1407 1409 1412 1416 1421 1426 1430 1436 1439 1444 1450 1454 1458 1457 1464 1466 1467 1472 1474 1479 1481 1483 1484 1485 1489 1490 1492 1494 1497
1389 1390 1392 1393 1394 1394 1394 1392 1392 1394 1396 1398 1399 1401 1403 1406 1411 1413 1417 1421 1427 1433 1437 1442 1447 1448 1454 1458 1462 1463 1465 1467 1470 1472 1475 1478 1479 1481 1484 1485 1485 1487 1490
1381 1382 1384 1385 1385 1385 1385 1384 1386 1388 1391 1393 1395 1398 1400 1403 1407 1411 1414 1419 1424 1428 1430 1437 1442 1446 1451 1459 1462 1462 1462 1464 1466 1468 1469 1472 1475 1476 1479 1477 1480 1482 1485
1375 1376 1377 1377 1377 1378 1378 1378 1379 1382 1385 1389 1391 1395 1398 1401 1405 1410 1413 1416 1420 1427 1430 1435 1439 1445 1450 1456 1463 1462 1459 1459 1461 1464 1466 1466 1472 1473 1474 1473 1475 1478 1480
1373 1373 1372 1373 1372 1372 1373 1374 1375 1379 1382 1385 1388 1393 1396 1400 1406 1410 1414 1418 1423 1426 1429 1437 1439 1443 1445 1452 1456 1453 1455 1458 1457 1459 1462 1466 1470 1470 1471 1472 1472 1473 1477